Regional Weather Roundup
Issued by NWS

Home | Current Version | Previous Version | Graphics & Text | Print | Product List | Glossary On
Versions: 1 2 3 4 5 6 7 8 9 10 11 12 13 14 15 16 17 18 19 20 21 22 23 24 25 26 27 28 29 30 31 32 33 34 35 36 37 38 39 40 41 42 43 44 45 46 47 48 49 50
000
ASUS43 KDMX 242303
RWRIA

WEATHER ROUNDUP FOR IOWA
NATIONAL WEATHER SERVICE DES MOINES IA
600 PM CDT TUE MAY 24 2016

NOTE: "FAIR" INDICATES FEW OR NO CLOUDS BELOW 12,000 FEET WITH NO
SIGNIFICANT WEATHER AND/OR OBSTRUCTIONS TO VISIBILITY.

* - THESE STATIONS ARE NOT NWS STATIONS...THUS NOT UNDER NWS
QUALITY CONTROL.  THEY ALSO DO NOT REPORT WEATHER SUCH
AS PRECIPITATION OR FOG.

IAZ001>003-012>014-020>022-031>034-043>046-250000-
   NORTHWEST IOWA

CITY           SKY/WX    TMP DP  RH WIND       PRES   REMARKS
CARROLL *      MOSUNNY   79  68  69 SE8       29.89F HX  81
CHEROKEE *     SUNNY     81  64  54 S3        29.87F HX  83
DENISON *      MOSUNNY   79  64  61 S7        29.87F HX  81
LE MARS *      SUNNY     82  61  47 SE7       29.87F HX  83
ORANGE CITY *  SUNNY     82  61  47 SE5       29.88F HX  83
SHELDON *      SUNNY     82  61  47 SE7       29.87S HX  83
SIOUX CITY     SUNNY     81  65  58 SE13      29.85F HX  83
SPENCER        SUNNY     82  58  43 SE5       29.88F HX  82
STORM LAKE *   SUNNY     81  57  44 CALM      29.89F HX  81
$$

IAZ055>058-069>071-079>083-090>094-250000-
   SOUTHWEST IOWA

CITY           SKY/WX    TMP DP  RH WIND       PRES   REMARKS
ATLANTIC *     MOSUNNY   79  59  50 E7        29.88F HX  80
AUDUBON *        N/A     81  63  54 S6        29.90F HX  82
CLARINDA *       N/A     81  63  54 MISG      29.90S HX  82
COUNCIL BLFS * SUNNY     79  59  50 CALM      29.88S HX  80
CRESTON *      MOSUNNY   81  61  50 SE7       29.91F HX  81
HARLAN  *        N/A    N/A N/A N/A MISG        N/A
LAMONI         SUNNY     79  61  53 S8        29.90F HX  80
RED OAK *      SUNNY     82  59  44 VRB5      29.88F HX  82
SHENANDOAH *   SUNNY     82  61  47 CALM      29.88S HX  83
$$

IAZ047>049-059>061-072>074-084-250000-
   CENTRAL IOWA

CITY           SKY/WX    TMP DP  RH WIND       PRES   REMARKS
AMES           SUNNY     79  64  60 VRB3      29.89F HX  81
ANKENY *       SUNNY     82  61  47 W7        29.88F HX  83
BOONE *        SUNNY     79  64  61 CALM      29.89F HX  81
CHARITON *     CLOUDY    82  61  47 S9        29.90S HX  83
DES MOINES     PTSUNNY   84  59  42 SW7       29.88F HX  84
GRINNELL*      MOSUNNY   82  57  42 W6        29.89F HX  82
KNOXVILLE *    CLOUDY    82  59  44 S9        29.88S HX  82
MARSHALLTOWN   SUNNY     81  61  50 CALM      29.88F HX  82
NEWTON *       SUNNY     84  59  42 W8        29.88F HX  84
PERRY *          N/A     81  64  57 S5        29.89F HX  82
$$

IAZ004>006-015-016-023>025-035-036-250000-
   NORTH CENTRAL IOWA

CITY           SKY/WX    TMP DP  RH WIND       PRES   REMARKS
ALGONA *       SUNNY     81  61  50 SE9G16    29.89F HX  81
CLARION *      SUNNY     79  64  61 SE6       29.90F HX  81
ESTHERVILLE    SUNNY     81  57  43 S9        29.88F HX  81
FORT DODGE *   SUNNY     79  63  57 E5        29.91S HX  80
MASON CITY     SUNNY     79  63  57 S6        29.92F HX  80
FOREST CITY *  SUNNY     77  59  53 NE9       29.91F
WEBSTER CITY * SUNNY     81  64  57 CALM      29.87F HX  82
IOWA FALLS *     N/A     82  59  44 E5        29.90F HX  82
$$

IAZ007>011-017>019-026>030-037>042-050>054-066-250000-
   NORTHEAST IOWA

CITY           SKY/WX    TMP DP  RH WIND       PRES   REMARKS
CEDAR RAPIDS   CLOUDY    82  66  58 S15       29.87F HX  84
CHARLES CITY * SUNNY     82  57  42 SE5       29.90F HX  82
CLINTON *      MOSUNNY   86  58  38 SW16      29.89F HX  85
DECORAH *      SUNNY     81  57  44 VRB5      29.90F HX  81
DUBUQUE        MOSUNNY   82  60  47 CALM      29.91F HX  82
MONTICELLO *   CLOUDY    84  61  45 SW8       29.88F HX  84
OELWEIN *      MOSUNNY   82  59  44 S8        29.90F HX  82
WATERLOO       SUNNY     82  58  43 S5        29.88F HX  82
$$

IAZ064-065-067-068-078-250000-
   EAST CENTRAL IOWA

CITY           SKY/WX    TMP DP  RH WIND       PRES   REMARKS
DAVENPORT      CLOUDY    85  56  37 S14       29.90F HX  84
IOWA CITY      PTSUNNY   82  64  54 SW10      29.90F HX  83
MT. PLEASANT * MOSUNNY   86  64  48 S9        29.90S HX  87
MUSCATINE *    MOSUNNY   82  61  47 SW12G18   29.89S HX  83
QUAD CITIES    CLOUDY    87  57  35 SW9       29.88F HX  86
$$

IAZ062-063-075>077-085>089-095>099-250000-
   SOUTHEAST IOWA

CITY           SKY/WX    TMP DP  RH WIND       PRES   REMARKS
BURLINGTON     CLOUDY    81  65  58 S10       29.91R HX  83
FAIRFIELD *      N/A    N/A N/A N/A MISG        N/A
FORT MADISON * PTSUNNY   81  64  57 S8        29.93R HX  82
KEOKUK *       PTSUNNY   79  66  65 SW10      29.92R HX  81
OSKALOOSA *      N/A     82  63  51 S9G17     29.90S HX  83
OTTUMWA        PTSUNNY   80  64  58 S8        29.89S HX  82
WASHINGTON *   SUNNY     84  66  54 S10       29.90S HX  86
$$

ABBREVIATIONS USED IN REMARKS
   TC - TEMPERATURES IN CELSIUS
  WCI - WIND CHILL INDEX
   HX - HEAT INDEX
  VSB - VISIBILITY
$$





USA.gov is the U.S. government's official web portal to all federal, state and local government web resources and services.